TimeCST,TemperatureF,Dew PointF,Humidity,Sea Level PressureIn,VisibilityMPH,Wind Direction,Wind SpeedMPH,Gust SpeedMPH,PrecipitationIn,Events,Conditions,WindDirDegrees,DateUTC
12:04 AM,55.4,53.6,94,29.83,3.0,WNW,3.5,-,N/A,,Overcast,300,2013-02-13 06:04:00
12:43 AM,55.4,53.6,94,29.85,10.0,West,9.2,-,N/A,,Overcast,280,2013-02-13 06:43:00
12:53 AM,55.0,53.1,93,29.86,10.0,West,9.2,-,N/A,,Overcast,280,2013-02-13 06:53:00
1:34 AM,55.4,53.6,94,29.86,10.0,West,8.1,-,N/A,,Overcast,280,2013-02-13 07:34:00
1:53 AM,55.9,52.0,87,29.85,10.0,West,4.6,-,N/A,,Mostly Cloudy,270,2013-02-13 07:53:00
2:06 AM,55.4,51.8,88,29.86,10.0,WSW,3.5,-,N/A,,Scattered Clouds,250,2013-02-13 08:06:00
2:53 AM,55.0,51.1,86,29.87,10.0,West,5.8,-,N/A,,Partly Cloudy,270,2013-02-13 08:53:00
3:53 AM,54.0,48.9,83,29.89,10.0,West,10.4,-,N/A,,Partly Cloudy,280,2013-02-13 09:53:00
4:53 AM,52.0,46.9,83,29.89,10.0,WNW,9.2,-,N/A,,Clear,290,2013-02-13 10:53:00
5:51 AM,51.8,46.4,82,29.90,10.0,WNW,5.8,-,N/A,,Overcast,290,2013-02-13 11:51:00
5:53 AM,52.0,46.0,80,29.91,10.0,WNW,8.1,-,N/A,,Overcast,290,2013-02-13 11:53:00
6:53 AM,51.1,45.0,80,29.93,10.0,WNW,6.9,-,N/A,,Mostly Cloudy,290,2013-02-13 12:53:00
7:53 AM,51.1,45.0,80,29.96,10.0,WNW,9.2,-,N/A,,Scattered Clouds,290,2013-02-13 13:53:00
8:16 AM,51.8,44.6,76,29.99,10.0,West,8.1,-,0.00,,Mostly Cloudy,270,2013-02-13 14:16:00
8:24 AM,51.8,44.6,76,30.00,10.0,WNW,8.1,-,0.00,,Mostly Cloudy,290,2013-02-13 14:24:00
8:35 AM,51.8,46.4,82,29.99,10.0,WNW,6.9,-,0.00,Rain,Light Rain,290,2013-02-13 14:35:00
8:53 AM,51.1,46.0,83,30.00,10.0,WNW,6.9,-,0.00,Rain,Light Rain,290,2013-02-13 14:53:00
9:53 AM,48.9,43.0,80,30.01,10.0,NW,11.5,19.6,0.01,Rain,Light Rain,310,2013-02-13 15:53:00
10:53 AM,48.0,43.0,83,30.01,10.0,NW,10.4,17.3,0.03,Rain,Light Rain,310,2013-02-13 16:53:00
11:05 AM,48.2,42.8,82,29.99,10.0,NW,4.6,-,0.00,,Overcast,320,2013-02-13 17:05:00
11:53 AM,50.0,42.1,74,29.99,10.0,NW,11.5,21.9,0.00,,Mostly Cloudy,310,2013-02-13 17:53:00
12:53 PM,51.1,41.0,68,29.99,10.0,NW,11.5,18.4,N/A,,Overcast,320,2013-02-13 18:53:00
1:53 PM,52.0,39.9,63,29.99,10.0,WNW,13.8,-,N/A,,Overcast,290,2013-02-13 19:53:00
2:53 PM,52.0,39.0,61,29.99,10.0,NW,9.2,-,N/A,,Overcast,320,2013-02-13 20:53:00
3:53 PM,53.1,37.9,57,29.99,10.0,NNW,11.5,-,N/A,,Overcast,340,2013-02-13 21:53:00
4:53 PM,52.0,39.0,61,30.01,10.0,NNW,9.2,-,N/A,,Mostly Cloudy,330,2013-02-13 22:53:00
5:53 PM,51.1,37.9,61,30.02,10.0,NNW,8.1,-,N/A,,Overcast,340,2013-02-13 23:53:00
6:53 PM,50.0,39.0,66,30.04,10.0,North,9.2,-,N/A,,Mostly Cloudy,350,2013-02-14 00:53:00
7:53 PM,46.9,39.0,74,30.05,10.0,North,3.5,-,N/A,,Partly Cloudy,360,2013-02-14 01:53:00
8:53 PM,46.0,37.9,73,30.07,10.0,NNW,3.5,-,N/A,,Clear,340,2013-02-14 02:53:00
9:53 PM,42.1,37.0,82,30.08,10.0,Calm,Calm,-,N/A,,Clear,0,2013-02-14 03:53:00
10:53 PM,39.0,36.0,89,30.09,8.0,Calm,Calm,-,N/A,,Clear,0,2013-02-14 04:53:00
11:53 PM,37.9,35.1,89,30.09,6.0,Calm,Calm,-,N/A,,Clear,0,2013-02-14 05:53:00